Volver al catálogo

CZ-4C DEB

ActivoPO
NORAD 35248·DEBRIS·🇨🇳 China

Lanzado Nov 11, 2007 desde Taiyuan Satellite Launch Center

Loading…

Próximos Pases (próximas 24 horas)

TLE

ActualizadoSource: Space-Track

Época: Sep 13, 2026, 23:58 UTC

1 35248U 07055C   26256.99886696  .00284416  00000-0  22321-2 0  9998
2 35248  97.8470  91.0199 0017824 315.9618  44.0223 15.70491434  2367

Sigue CZ-4C DEB en tiempo real con AllMySat

Download on the App Store